Terminal Aerodrome Forecast
Issued by NWS Green Bay, WI

Home | Current Version | Previous Version | Graphics & Text | Print | Product List | Glossary On
Versions: 1 2 3 4 5 6 7 8 9 10 11 12 13 14 15 16 17 18 19 20 21 22 23 24 25 26 27 28 29 30 31 32 33 34 35 36 37 38 39 40 41 42 43 44 45 46 47 48
000
FTUS43 KGRB 051012 AAA
TAFGRB
TAF AMD
KGRB 051012Z 0510/0606 23008KT P6SM SCT012 BKN040
      TEMPO 0510/0514 BKN025
     FM052000 18009KT P6SM BKN090
     FM060300 16008KT P6SM BKN150 WS015/20035KT=

USA.gov is the U.S. government's official web portal to all federal, state and local government web resources and services.